Preview of NWS' New Version of Forecast
This preview is not operational and should not be used for support decisions.

Regional Weather Roundup (RWR)

Issued by Philadelphia/Mt Holly (PHI)

                            
000
ASUS41 KPHI 171011
RWRPHI

REGIONAL WEATHER ROUNDUP
NATIONAL WEATHER SERVICE MOUNT HOLLY NJ
500 AM EST THU JAN 17 2019

NOTE:  "FAIR" INDICATES FEW OR NO CLOUDS BELOW 12,000 FEET WITH NO
SIGNIFICANT WEATHER AND/OR OBSTRUCTIONS TO VISIBILITY.

 * = STATION DOES NOT REPORT PRECIPITATION (E.G. RAIN, SNOW, ETC.) 
        OR FOG.

NJZ015>026-171100-
SOUTHERN NEW JERSEY
  
CITY           SKY/WX    TMP DP  RH WIND       PRES   REMARKS
POMONA         FAIR      24  19  81 N5        30.32R WCI  18          
WILDWOOD*      MOCLDY    34  23  64 N8        30.32S WCI  27          
MILLVILLE      MOCLDY    30  18  60 NW5       30.32R WCI  25          
WRIGHTSTOWN    FAIR      27  16  62 N9        30.30R WCI  18          
MOUNT HOLLY    FAIR      28  16  60 N6        30.33R WCI  22          
TRENTON        FAIR      28  14  55 N8        30.33R WCI  20          

$$
NJZ001>014-171100-
NORTHERN NEW JERSEY
  
CITY           SKY/WX    TMP DP  RH WIND       PRES   REMARKS
SUSSEX         FAIR      21   9  59 N6        30.31R WCI  13          
ANDOVER*         N/A     20   7  57 N6        30.31S WCI  12          
MORRISTOWN     FAIR      25   9  50 NW3       30.33R                  
NEWARK         MOCLDY    26   3  37 NW9       30.33R WCI  17          
TETERBORO      FAIR      25   9  50 N9G20     30.33R WCI  15          
CALDWELL       FAIR      23   7  50 NW9       30.33R WCI  13          
SOMERVILLE     FAIR      25   5  42 N10       30.32S WCI  15          
ALLAIRE*       FAIR      28  14  55 N10       30.33R WCI  19          
TOMS RIVER*    FAIR      27  19  72 N6        30.33R WCI  20          

$$
PAZ043-044-047-054-055-060>062-066>071-171100-
EASTERN PENNSYLVANIA
  
CITY           SKY/WX    TMP DP  RH WIND       PRES   REMARKS
PHILADELPHIA   CLOUDY    30  16  56 N6        30.34R WCI  24          
NORTH PHILA    FAIR      30  15  53 N10       30.34R WCI  21          
BLUE BELL*     FAIR      28  16  59 N3        30.34R                  
DOYLESTOWN     FAIR      26  12  55 NE5       30.32R WCI  20          
QUAKERTOWN*    CLEAR     25  10  54 N5        30.32R WCI  19          
PERKASIE*      FAIR      25  12  58 N6        30.32R WCI  18          
POTTSTOWN      FAIR      25  14  63 N9        30.34R WCI  15          
LANCASTER      FAIR      29  17  61 N5        30.32R WCI  24          
COATESVILLE    FAIR      28  16  59 CALM      30.31R                  
READING        FAIR      27  17  66 N7        30.32R WCI  19          
ALLENTOWN      FAIR      24  11  57 N7        30.33R WCI  16          
MOUNT POCONO   FAIR      14   7  73 N8        30.21R WCI   3          
HAZLETON       FAIR      18   9  68 N3        30.27S                  
LEHIGHTON      FAIR      23  10  58 CALM      30.34S                  
WILKES BARRE   FAIR      18   8  65 N6        30.31R WCI  10          

$$
DEZALL-MDZ008-012-015-019-020-171100-
DELAWARE AND EASTERN MARYLAND
  
CITY           SKY/WX    TMP DP  RH WIND       PRES   REMARKS
WILMINGTON     FAIR      30  18  60 N7        30.34R WCI  23          
DOVER          CLOUDY    34  25  70 N9        30.32R WCI  27          
GEORGETOWN     FAIR      33  25  72 CALM      30.32S                  
EASTON         MOCLDY    34  27  74 NW3       30.36R                  
PATUXENT       FAIR      31  28  89 CALM      30.32                   
OCEAN CITY     FAIR      26  24  92 NW3       30.31F                  
WALLOPS ISLAND FAIR      28  24  85 CALM      30.33R                  
CAMBRIDGE      CLEAR     27  27 100 CALM      30.32R                  
SALISBURY      FAIR      26  26 100 CALM      30.32R                  

$$
PAZ001-021-NYZ056-072-MDZ011-DCZ001-171100-
OTHER NEARBY LOCATIONS
  
CITY           SKY/WX    TMP DP  RH WIND       PRES   REMARKS
HARRISBURG     CLOUDY    30  16  56 N6        30.32R WCI  24          
STATE COLLEGE  FAIR      19  14  81 NW5       30.27F WCI  13          
WILLIAMSPORT   FAIR      20  11  68 NW3       30.34R                  
BINGHAMTON     FAIR      10   6  84 NW6       30.24R WCI   0          
NEW YORK CITY  FAIR      26   7  44 MISG      30.34R                  
BALTIMORE      CLOUDY    35  25  66 CALM      30.31S                  
WASHINGTON DC  CLOUDY    38  23  55 NW7       30.33F WCI  33          

$$